Miscellaneous Local Product
Issued by NWS Hastings, NE

Home | Current Version | Previous Version | Text Only | Print | Product List | Glossary On
Versions: 1 2 3 4 5 6 7 8 9 10 11 12 13 14 15 16 17 18 19 20 21 22 23 24 25 26 27 28 29 30 31 32 33 34 35 36 37 38 39 40 41 42 43 44 45 46 47 48 49 50
000
AXUS43 KGID 240802
MISGRI

GID CWA HOURLY WEATHER ROUNDUP
NATIONAL WEATHER SERVICE HASTINGS NE
300 AM CDT THU MAY 24 2018

NOTE: "FAIR" INDICATES FEW OR NO CLOUDS BELOW 12,000 FEET WITH NO
SIGNIFICANT WEATHER AND/OR OBSTRUCTIONS TO VISIBILITY.

...SOUTH CENTRAL NEBRASKA...

CITY           SKY/WX    TMP DP  RH WIND       PRES   REMARKS
GRAND ISLAND   CLOUDY    71  64  78 S10       30.01R
KEARNEY        CLOUDY    68  60  75 S17       30.00F
HASTINGS       PTCLDY    70  65  84 S6        30.02R
ORD            MOCLDY    68  62  81 CALM      29.99R
YORK           MOCLDY    72  68  88 S7        30.02R
AURORA         CLOUDY    70  65  85 S10       30.01S
LEXINGTON      MOCLDY    67  59  77 S12       29.98F
HOLDREGE       PTCLDY    65  59  83 S10       30.00S
HEBRON         CLOUDY    73  63  71 S8        30.02R

...NEBRASKA PANHANDLE...

CITY           SKY/WX    TMP DP  RH WIND       PRES   REMARKS
CHADRON        CLEAR     53  51  93 W5        29.97R
ALLIANCE       PTCLDY    54  53  97 CALM      29.98S
SCOTTSBLUFF    CLEAR     51  50  96 NW8       30.02R
SIDNEY         MOCLDY    56  53  90 N9        30.01R

...WESTERN AND NORTH CENTRAL NEBRASKA...

CITY           SKY/WX    TMP DP  RH WIND       PRES   REMARKS
VALENTINE      CLOUDY    63  58  83 E13       29.94F
AINSWORTH      CLOUDY    61  60  96 NE9       30.02F
ONEILL         CLOUDY    70  58  67 W8        30.03R
BROKEN BOW     MOCLDY    67  60  78 NE3       29.99F
IMPERIAL       CLOUDY    66  59  78 S13       29.95F
NORTH PLATTE   CLOUDY    68  58  70 SE8       29.97F
MCCOOK         CLOUDY    67  58  72 S7        29.97S

...EASTERN NEBRASKA...

CITY           SKY/WX    TMP DP  RH WIND       PRES   REMARKS
NORFOLK        CLOUDY    72  63  73 S14       29.99S
SO SIOUX CITY  PTCLDY    70  61  73 SE9       30.00S
TEKAMAH        CLEAR     68  63  84 SE12      30.01S
COLUMBUS       CLOUDY    73  65  75 S12       30.01
ALBION         CLOUDY    71  65  82 S6        29.99S
OMAHA EPPLEY   PTCLDY    71  63  75 SE7       30.03S
OFFUTT AFB     MOCLDY    69  64  83 SE6       30.03R
MILLARD        PTCLDY    73  65  77 SE3       30.03R
LINCOLN        PTCLDY    72  65  78 S7        30.03R
NEBRASKA CITY  PTCLDY    71  68  91 S8        30.05R
BEATRICE       PTCLDY    72  66  81 S12       30.03R
FALLS CITY     CLOUDY    71  65  81 S7        30.05R

...NORTHERN KANSAS...

CITY           SKY/WX    TMP DP  RH WIND       PRES   REMARKS
GOODLAND       CLOUDY    63  56  78 S9        30.00F
HILL CITY      PTCLDY    68  58  70 S10       29.99R
NORTON         SUNNY     66  57  72 S6        29.99R
PHILLIPSBURG   CLEAR     63  63 100 E5        29.99F
SMITH CENTER     N/A     63  57  82 SE6       30.01R
HAYS           PTCLDY    69  60  73 S18       30.01R
RUSSELL        CLOUDY    67  60  78 S15       29.98R
CONCORDIA      CLOUDY    70  64  81 S9        30.01R
SALINA         CLOUDY    72  65  78 S8        30.02R
TOPEKA         PTCLDY    72  67  84 S6        30.04F



USA.gov is the U.S. government's official web portal to all federal, state and local government web resources and services.